SATCOM 3 DEB

基本信息
目录编号:
32984
目录名称:
SATCOM 3 DEB
国际标识:
1979-101K
轨道中心:
EARTH
物体状态:
在轨
发射日期:
1979-12-07 UTC
轨道信息
数据来源: 国际轨道数据
星历时间: 2026-07-13T22:27:18+0800
半长轴: 28271.49km
偏心率: 0.4837318
轨道倾角: 9.653°
近地点辐角: 118.253°
升交点赤经: 72.488°
平近点角: 229.523°
近地点: 8217.534km
远地点: 35569.172km
周期: 788.466分钟
每日圈数: 1.826332
详细信息
发射场:
AFETR
轨道高度:
MEO
数据来源:
AOE Integration Group
参考系:
TEME
时间系统:
UTC
历元类型:
SGP4
2D轨道图
3D轨道图
轨道高度分析图
轨道倾角分析图
轨道综合分析图
查看轨道综合分析图